Savannah, GA

6:44 AM EDT on August 23, 2017 (GMT -0400)
Savannah International

Weather History for KSAV - December, 2013

Change the Weather History Date:

Sunday, December 15, 2013

  Actual Average Record
Temperature  
Mean Temperature 55 °F 52 °F  
Max Temperature 67 °F 62 °F 83 °F (1971)
Min Temperature 42 °F 41 °F 19 °F (1962)
Degree Days  
Heating Degree Days 10 14  
Month to date heating degree days 104 183  
Since 1 July heating degree days 360 450  
Cooling Degree Days 0 0  
Month to date cooling degree days 20 3  
Year to date cooling degree days 2473 2452  
Growing Degree Days 2 (Base 50)    
Moisture  
Dew Point 50 °F    
Average Humidity 76    
Maximum Humidity 93    
Minimum Humidity 59    
Precipitation  
Precipitation 0.04 in 0.10 in 1.03 in (1947)
Month to date precipitation 1.26 1.36  
Year to date precipitation 52.95 46.37  
Sea Level Pressure  
Sea Level Pressure 29.96 in    
Wind  
Wind Speed 10 mph (West)    
Max Wind Speed 25 mph    
Max Gust Speed 31 mph    
Visibility 10 miles    
Events Rain    
T = Trace of Precipitation, MM = Missing Value Source: NWS Daily Summary

Daily Weather History Graph

Daily Weather History Graph

Search for Another Location

Airport or City:

Trip Planner

Search our weather history database for the weather conditions in past years. The results will help you decide how hot, cold, wet, or windy it might be!

Date:

Astronomy

Dec. 15, 2013 Rise Set
Actual Time 7:18 AM EST 5:21 PM EST
Civil Twilight 6:51 AM EST 5:48 PM EST
Nautical Twilight 6:20 AM EST 6:19 PM EST
Astronomical Twilight 5:50 AM EST 6:49 PM EST
Moon 4:21 PM EST (12/15) 5:37 AM EST (12/15)
Length of Visible Light 10h 57m
Length of Day
10h 03m
Waxing Gibbous, 97% of the Moon is Illuminated
Dec 15
Waxing Gibbous
Dec 17
Full
Dec 25
Last Quarter
Jan 1
New
Jan 7
First Quarter

Hourly Weather History & Observations

Time (EST) Temp. Windchill Dew Point Humidity Pressure Visibility Wind Dir Wind Speed Gust Speed Precip Events Conditions
12:53 AM 66.9 °F - 63.0 °F 87% 29.85 in 10.0 mi WSW 8.1 mph - N/A   Overcast
1:00 AM 66.2 °F - 62.6 °F 88% 29.85 in 10.0 mi West 5.8 mph - N/A   Overcast
1:53 AM 66.0 °F - 63.0 °F 90% 29.86 in 10.0 mi West 11.5 mph - N/A   Overcast
2:07 AM 66.2 °F - 62.6 °F 88% 29.86 in 10.0 mi West 12.7 mph - N/A   Overcast
2:15 AM 66.2 °F - 62.6 °F 88% 29.85 in 10.0 mi WNW 8.1 mph 18.4 mph N/A   Overcast
2:53 AM 66.0 °F - 61.0 °F 84% 29.85 in 10.0 mi WNW 9.2 mph - N/A   Overcast
3:53 AM 64.0 °F - 55.9 °F 75% 29.86 in 10.0 mi WNW 11.5 mph - N/A   Overcast
4:53 AM 62.1 °F - 55.0 °F 78% 29.88 in 10.0 mi WNW 6.9 mph - 0.00 in   Overcast
5:53 AM 59.0 °F - 55.9 °F 90% 29.88 in 8.0 mi SSW 4.6 mph - 0.00 in Rain Light Rain
6:53 AM 59.0 °F - 55.9 °F 90% 29.89 in 10.0 mi West 8.1 mph - 0.02 in Rain Light Rain
7:53 AM 57.9 °F - 55.9 °F 93% 29.94 in 10.0 mi WSW 8.1 mph - 0.00 in Rain Light Rain
8:37 AM 57.2 °F - 55.4 °F 94% 29.94 in 9.0 mi WSW 6.9 mph - 0.02 in Rain Light Rain
8:53 AM 57.9 °F - 55.9 °F 93% 29.94 in 10.0 mi WSW 9.2 mph - 0.02 in   Overcast
9:53 AM 59.0 °F - 55.0 °F 87% 29.96 in 10.0 mi WSW 11.5 mph - N/A   Mostly Cloudy
10:53 AM 59.0 °F - 54.0 °F 83% 29.99 in 10.0 mi West 15.0 mph - N/A   Overcast
11:53 AM 57.9 °F - 48.9 °F 72% 29.97 in 10.0 mi WNW 16.1 mph - N/A   Overcast
12:20 PM 59.0 °F - 50.0 °F 72% 29.96 in 10.0 mi West 13.8 mph - N/A   Mostly Cloudy
12:41 PM 59.0 °F - 48.2 °F 67% 29.96 in 10.0 mi West 16.1 mph 23.0 mph N/A   Mostly Cloudy
12:53 PM 57.9 °F - 48.0 °F 70% 29.96 in 10.0 mi West 20.7 mph 27.6 mph N/A   Mostly Cloudy
1:53 PM 55.9 °F - 45.0 °F 67% 29.96 in 10.0 mi WNW 17.3 mph 21.9 mph N/A   Mostly Cloudy
2:53 PM 55.0 °F - 43.0 °F 64% 29.97 in 10.0 mi WNW 11.5 mph - N/A   Mostly Cloudy
3:53 PM 54.0 °F - 41.0 °F 62% 29.99 in 10.0 mi West 9.2 mph - N/A   Mostly Cloudy
4:53 PM 54.0 °F - 39.9 °F 59% 30.01 in 10.0 mi WNW 13.8 mph - N/A   Mostly Cloudy
5:53 PM 51.1 °F - 41.0 °F 68% 30.04 in 10.0 mi WNW 8.1 mph - N/A   Mostly Cloudy
6:53 PM 50.0 °F - 41.0 °F 71% 30.06 in 10.0 mi WNW 5.8 mph - N/A   Mostly Cloudy
7:53 PM 48.9 °F - 41.0 °F 74% 30.09 in 10.0 mi NW 6.9 mph - N/A   Mostly Cloudy
8:53 PM 48.0 °F - 39.0 °F 71% 30.11 in 10.0 mi NW 8.1 mph - N/A   Mostly Cloudy
9:53 PM 46.9 °F - 37.0 °F 68% 30.13 in 10.0 mi NW 6.9 mph - N/A   Mostly Cloudy
10:53 PM 45.0 °F 40.1 °F 36.0 °F 71% 30.16 in 10.0 mi NW 9.2 mph - N/A   Mostly Cloudy
11:53 PM 42.1 °F 40.2 °F 35.1 °F 76% 30.18 in 10.0 mi NW 3.5 mph - N/A   Scattered Clouds